Flag for Canada Weather past 2 weeks in Fredericton, New Brunswick, Canada

Now
79 °F

Passing clouds.


Feels Like: 81 °F
Forecast: N/A
Wind: 13 mph from South

Location: Fredericton

Current Time: Sep 2, 2014 at 6:43:49 PM

Latest Report: Sep 2, 2014 at 6:00 PM


Visibility: 9 mi

Pressure: 29.81 "Hg

Humidity: 65%

Dew point: 66 °F

Location of FrederictonLocation

Historic Weather in Fredericton — Graph

°F

Fredericton temperature yesterday

Maximum temperature yesterday: 75 °F (at 10:47 AM)
Minimum temperature yesterday: 64 °F (at 10:56 PM)
Average temperature yesterday: 69 °F

Past Weeks' High & Low Weather Summary

 TemperatureHumidityPressure
High88 °F (Aug 25, 3:00 PM)100% (Aug 19, 3:00 AM)30.25 "Hg (Aug 19, 3:00 AM)
Low45 °F (Aug 30, 4:00 AM)36% (Aug 29, 6:00 PM)29.65 "Hg (Aug 18, 5:00 PM)
Average66 °F81%29.99 "Hg
* Reported Aug 18 5:00 PM — Sep 2 5:00 PM, Fredericton, Weather by CustomWeather, © 2014

Note: Actual official high and low records may vary slightly from our data, if they occured in-between our weather recording intervals... More about our weather records

Advertising

Fredericton weather history for previous 24 hours

 ConditionsComfort  
Time TempWeatherWind HumidityBarometerVisibility
5:00 PM
Sep 2
81 °FScattered clouds.13 mph66%29.82 "Hg9 mi
4:00 PM81 °FBroken clouds.10 mph70%29.84 "Hg9 mi
3:00 PM77 °FOvercast.6 mph74%29.86 "Hg9 mi
2:00 PM75 °FPartly sunny.6 mph78%29.88 "Hg9 mi
1:00 PM70 °FLow clouds.7 mph88%29.91 "Hg9 mi
12:00 PM68 °FLow clouds.8 mph94%29.93 "Hg9 mi
11:53 AM68 °FLow clouds.3 mph88%29.93 "Hg9 mi
11:00 AM66 °FLow clouds.7 mph100%29.93 "Hg9 mi
10:00 AM68 °FLow clouds.5 mph88%29.92 "Hg9 mi
9:00 AM66 °FLow clouds.2 mph94%29.92 "Hg9 mi
8:00 AM66 °FFog.3 mph94%29.93 "Hg2 mi
7:00 AM64 °FFog.3 mph100%29.93 "Hg2 mi
6:00 AM64 °FFog.5 mph100%29.93 "Hg1 mi
5:00 AM64 °FFog.5 mph100%29.94 "Hg2 mi
4:00 AM64 °FFog.5 mph100%29.95 "Hg1 mi
3:54 AM64 °FFog.5 mph100%29.94 "Hg1 mi
3:00 AM64 °FFog.No wind100%29.94 "Hg1 mi
2:00 AM64 °FFog.3 mph100%29.95 "Hg1 mi
1:00 AM64 °FFog.3 mph100%29.96 "Hg1 mi
12:00 AM64 °FFog.5 mph100%29.96 "Hg2 mi
11:45 PM
Sep 1
64 °FFog.7 mph100%29.96 "Hg2 mi
11:00 PM64 °FFog.6 mph100%29.96 "Hg2 mi
10:56 PM64 °FFog.7 mph100%29.96 "Hg2 mi
10:00 PM66 °FLow clouds.5 mph94%29.97 "Hg9 mi
9:00 PM66 °FLow clouds.6 mph94%29.96 "Hg9 mi
8:03 PM66 °FOvercast.10 mph94%29.96 "Hg9 mi
7:00 PM68 °FOvercast.7 mph88%29.96 "Hg9 mi
6:00 PM68 °FOvercast.8 mph88%29.96 "Hg9 mi
Weather by CustomWeather, © 2014

See weather overviewHow to use our weather pages